887  
ASUS44 KMOB 290312  
RWRMOB  
REGIONAL WEATHER ROUNDUP  
NATIONAL WEATHER SERVICE MOBILE AL  
1000 PM CDT FRI APR 28 2017  
 
NOTE: "FAIR" INDICATES FEW OR NO CLOUDS BELOW 12,000 FEET WITH NO  
SIGNIFICANT WEATHER AND/OR S TO VISIBILITY
.  
 
* THESE STATIONS ARE PART OF THE UNIVERSITY OF SOUTH ALABAMA  
MESONET AND ARE NOT UNDER NWS OR FAA QUALITY CONTROL.
 
 
ALZ061>064-290400-  
COASTAL ALABAMA  
 
CITY SKY/WX TMP DP RH WIND PRES REMARKS
 
MOBILE REG APT CLOUDY 77 73 87 SE18 30.01R  
BROOKLEY FIELD CLOUDY 78 75 90 SE15 30.02R  
USA CAMPUS* N/A 77 72 83 E5 30.01R  
DOG RIVER* N/A 77 73 88 SE6 30.77R  
 
 
CITY SKY/WX TMP DP RH WIND PRES REMARKS
 
GULF SHORES CLOUDY 75 75 100 SE9G22 30.02R  
 

 
 
ALZ051>060-290400-  
INTERIOR SOUTHWEST AND SOUTH CENTRAL ALABAMA  
 
CITY SKY/WX TMP DP RH WIND PRES REMARKS
 
GREENVILLE PTCLDY 76 68 76 VRB5 30.03R  
EVERGREEN MOCLDY 75 70 84 S10 30.04R  
ATMORE* NOT AVBL  
ANDALUSIA/OPP MOCLDY 77 70 79 S3 30.05R  
ANDALUSIA* N/A 73 70 88 S5 30.05R  
FLORALA APT PTCLDY 73 70 90 S7 30.07R  
FLORALA* N/A 73 72 94 CALM 30.78R  
 

 
 
FLZ001>006-290400-  
WESTERN FLORIDA PANHANDLE  
 
CITY SKY/WX TMP DP RH WIND PRES REMARKS
 
PENSACOLA CLOUDY 77 72 84 SE15 30.03R  
NAS PENSACOLA CLOUDY 77 72 84 SE14 30.03R  
MILTON CLOUDY 74 71 91 SE12 30.04R  
WHTNG S FIELD CLOUDY 78 72 81 SE10 30.04R  
 
 
CITY SKY/WX TMP DP RH WIND PRES REMARKS
 
JAY* N/A 75 70 83 SE10 30.04R  
DUKE FIELD CLOUDY 75 70 84 S10 30.04R  
CRESTVIEW CLOUDY 75 70 84 S5 30.07R  
VALPARAISO CLOUDY 76 71 85 SE14 30.05R  
DESTIN CLOUDY 78 77 96 SE12 30.05R  
 

 
 
MSZ076-079-290400-  
INTERIOR SOUTHEAST MISSISSIPPI  
 
CITY SKY/WX TMP DP RH WIND PRES REMARKS
 
LEAKESVILLE* NOT AVBL  
AGRICOLA* N/A 77 73 88 CALM 30.00R  
 

 
 
MARINE OBSERVATIONS  
 
STATION/POSITION TIME TEMP WIND PRES WAVE
 
AIR SEA DIR/SP/G HT/PER  
(UTC) (F) (DEG/KT/KT) (MB) (FT/S)  
PASCAGOULA 0248 77 130/ 13/ 18 1015.5R  
PETIT BOIS ISLND 0248 76 120/ 13/ 17 1016.2R  
GRAND BAY 0145 77 130/ 18 1015.0S  
KATRINA CUT 0230 76 130/ 20 1015.6R  
CEDAR POINT 0230 76 130/ 18 1015.9R  
E DAUPHIN ISLAND 0200 76 130/ 18/ 21 1014.9R  
MIDDLE BAY LIGHT 0230 76 120/ 23 1015.2R  
USCG MOBILE BAY 0248 77 78 140/ 9/ 15 1016.8R  
STATE DOCKS 0248 77 77 1016.4R  
MEAHER PARK 0230 77 130/ 11 1016.3R  
FORT MORGAN 0248 76 130/ 21/ 24 N/A  
12 S ORANGE BCH 0250 76 75 120/ 16/ 19 1015.9R 4/ 7  
PENSACOLA BAY 0248 76 78 140/ 3/ 6 1017.2R  
64 S DAUPHIN ISL 0250 77 76 130/ 17/ 21 1015.0R 5/ 6  
67 S FORT MORGAN 0230 76 1014.6S  
 

 
 
SELECTED LOCATIONS ACROSS THE REGION  
 
CITY SKY/WX TMP DP RH WIND PRES REMARKS
 
NEW ORLEANS MOCLDY 79 74 84 SE13 29.93R  
GULFPORT CLOUDY 78 76 93 SE15 29.98R  
PASCAGOULA AP CLOUDY 77 73 87 SE14 29.99R  
PASCAGOULA* NOT AVBL  
HATTIESBURG MOCLDY 77 72 84 SE9 29.97R  
LAUREL MOCLDY 77 72 83 S10 29.98R  
MERIDIAN CLEAR 78 72 81 S8 29.97R  
JACKSON MOCLDY 79 71 76 S14 29.92R  
MONTGOMERY CLEAR 77 67 71 SE5 30.03R  
TROY CLEAR 73 70 90 SE5 30.06R  
ASHFORD* N/A 73 70 88 S5 30.05R  
DOTHAN PTCLDY 76 69 79 SE6 30.10R  
PANAMA CITY PTCLDY 74 72 93 CALM 30.05R FOG  
 

 
 
 
 
CLICK HERE TO GO TO PREVIOUS BULLETINS.

The Nexlab AL Page
The Nexlab FL Page
The Nexlab MS Page Main Text Page